星链-4067 (STARLINK-4067 )

导读 | 星芒AI

STARLINK-4067 是 SpaceX Starlink 卫星互联网项目中的一颗低轨卫星,属于第 18 批部署的 Starlink 卫星群。该卫星于 2023 年发射,运行在约 550 公里的轨道高度,旨在为全球用户提供高速互联网服务。Starlink 项目通过大规模部署卫星,构建全球覆盖的通信网络,特别服务于偏远地区。STARLINK-4067 采用先进推进和通信技术,支持自动避障,确保轨道安全。该项目持续扩展,推动全球宽带接入的普及。

基本信息
目录编号:
52668
目录名称:
STARLINK-4067
国际标识:
2022-053N
轨道中心:
EARTH
卫星名称:
星链-4067
卫星全名:
星链-4067 (STARLINK-4067 )
卫星状态:
在轨 (已飞行1313 天)
发射日期:
2022-05-18 UTC
国别 :
美国 (US)
星等 :
--
轨道信息
数据来源 国际轨道数据 AOE轨道数据
星历时间 2025-12-21T04:09:17+0800
9小时前
查看轨道信息
2025-12-17T14:00:00+0800
3天前
查看轨道信息
半长轴 6917.892km 6917.851km
偏心率 0.0000925 0.0000732
轨道倾角 53.219° 53.213°
近地点辐角 43.433° 45.219°
升交点赤经 148.090° 164.205°
平近点角 316.673° 245.230°
近地点 539.115km 539.209km
远地点 540.395km 540.223km
周期 95.438分钟 95.437分钟
每日圈数 15.088363 15.088498
详细信息
固有亮度:
5
最大亮度:
2.5
卫星平台:
Starlink v1.5
覆盖范围:
全球
运营商:
太空探索技术公司
运营商所在国:
美国
制造商(研发单位):
太空探索技术公司
制造商所在国:
美国
使用方式:
暂无
卫星简介
星链(Starlink)计划是由太空探索技术公司(SpaceX)提出的一个巨型低轨卫星互联网星座项目,计划在2019年至2024年间在太空搭建由约1.2万颗卫星组成的“星链”网络,其中1584颗将部署在地球上空550千米处的近地轨道,并从2020年开始工作。该卫星仍在工作。
2D轨道图
3D轨道图
轨道高度分析图
轨道倾角分析图
轨道综合分析图
查看轨道综合分析图